Aktuell
News
Messwerte
Diagramme
Archiv
Wettervorhersage
Regen
Wettergefahren

Astro & Geo
Health
Pegel
Gästebuch
Kontakt
Impressum
Datenschutz
App

Wolkenlos bei 8.5 °C – Luftdruck: 1018.3 hPa – Wind: NW 0.0 km/h
Messwerte von 01:00 Uhr; Warnsymbol: Datenbasis DWD; Wetterzustand powered by OpenWeatherMap, CC BY-SA 4.0
Übersicht
Heute
Gestern
Vor 1 Jahr
Info
Gestern – Der Tag im Rückblick
 
Messwerte von Montag, 19.04.2021
Symbol
Zeitpunkt
Wetter-
zustand
Zeitpunkt
Temperatur
gefühlt
Zeitpunkt
Luftfeuchte
Taupunkt
Zeitpunkt
Luftdruck
Zeitpunkt
Wind
Zeitpunkt
Windböen
Max 15 Min.
Wind-
richtung
Zeitpunkt
Regen
Summe 1 h
Regenrate
Max 15 Min.
UV-Index
Max 15 Min.
Pegel Köln
Zeitpunkt
Warnlage
Zeitpunkt
00:15 Leicht bewölkt3 10.6 °C
10.6 °C
73 %
6.0 °C
1019.5 hPa 3.2 km/h
1 Bft
7.9 km/h
2 Bft
WNW -
0.0 mm/h
0.0 228 cm
00:30 Leicht bewölkt3 10.6 °C
10.6 °C
72 %
5.7 °C
1019.5 hPa 1.4 km/h
1 Bft
4.7 km/h
1 Bft
NNW -
0.0 mm/h
0.0 228 cm
00:45 Leicht bewölkt3 10.7 °C
10.7 °C
72 %
5.8 °C
1019.4 hPa 3.2 km/h
1 Bft
6.5 km/h
2 Bft
NW -
0.0 mm/h
0.0 228 cm
01:00 Stark bewölkt2 10.6 °C
10.6 °C
73 %
6.0 °C
1019.4 hPa 3.2 km/h
1 Bft
7.9 km/h
2 Bft
NW 0.00 mm
0.0 mm/h
0.0 228 cm
01:15 Wolkig3 10.6 °C
10.6 °C
74 %
6.1 °C
1019.4 hPa 1.4 km/h
1 Bft
7.9 km/h
2 Bft
NW -
0.0 mm/h
0.0 228 cm
01:30 Wolkig3 10.5 °C
10.5 °C
75 %
6.2 °C
1019.4 hPa 0.0 km/h
0 Bft
4.7 km/h
1 Bft
NW -
0.0 mm/h
0.0 224 cm
01:45 Wolkig3 10.5 °C
10.5 °C
75 %
6.2 °C
1019.3 hPa 0.0 km/h
0 Bft
0.0 km/h
0 Bft
NW -
0.0 mm/h
0.0 228 cm
02:00 Bedeckt2 10.4 °C
10.4 °C
77 %
6.4 °C
1019.2 hPa 0.0 km/h
0 Bft
0.0 km/h
0 Bft
NW 0.00 mm
0.0 mm/h
0.0 227 cm
02:15 Bedeckt2 10.0 °C
10.0 °C
79 %
6.4 °C
1019.1 hPa 1.4 km/h
1 Bft
3.2 km/h
1 Bft
NW -
0.0 mm/h
0.0 227 cm
02:30 Stark bewölkt2 10.1 °C
10.1 °C
79 %
6.4 °C
1019.1 hPa 1.4 km/h
1 Bft
4.7 km/h
1 Bft
WSW -
0.0 mm/h
0.0 227 cm
02:45 Wolkig3 9.8 °C
9.8 °C
80 %
6.4 °C
1019.1 hPa 1.4 km/h
1 Bft
3.2 km/h
1 Bft
W -
0.0 mm/h
0.0 227 cm
03:00 Wolkig3 9.5 °C
9.5 °C
81 %
6.3 °C
1019.0 hPa 3.2 km/h
1 Bft
6.5 km/h
2 Bft
W 0.00 mm
0.0 mm/h
0.0 227 cm
03:15 Wolkig3 9.2 °C
9.2 °C
82 %
6.2 °C
1019.0 hPa 3.2 km/h
1 Bft
6.5 km/h
2 Bft
W -
0.0 mm/h
0.0 227 cm
03:30 Wolkig3 9.1 °C
9.1 °C
81 %
5.9 °C
1019.0 hPa 3.2 km/h
1 Bft
9.7 km/h
2 Bft
WNW -
0.0 mm/h
0.0 227 cm
03:45 Wolkig3 9.0 °C
8.8 °C
82 %
6.0 °C
1019.0 hPa 3.2 km/h
1 Bft
4.7 km/h
1 Bft
W -
0.0 mm/h
0.0 227 cm
04:00 Wolkig3 8.9 °C
8.9 °C
82 %
5.9 °C
1018.9 hPa 3.2 km/h
1 Bft
6.5 km/h
2 Bft
W 0.00 mm
0.0 mm/h
0.0 227 cm
04:15 Wolkig3 8.7 °C
8.7 °C
82 %
5.7 °C
1018.8 hPa 3.2 km/h
1 Bft
6.5 km/h
2 Bft
WNW -
0.0 mm/h
0.0 227 cm
04:30 Wolkig3 8.6 °C
8.6 °C
82 %
5.6 °C
1018.8 hPa 3.2 km/h
1 Bft
6.5 km/h
2 Bft
WNW -
0.0 mm/h
0.0 227 cm
04:45 Wolkig3 8.4 °C
8.4 °C
82 %
5.4 °C
1018.8 hPa 4.7 km/h
1 Bft
6.5 km/h
2 Bft
NW -
0.0 mm/h
0.0 227 cm
05:00 Wolkig3 8.4 °C
7.5 °C
81 %
5.2 °C
1018.9 hPa 4.7 km/h
1 Bft
11.2 km/h
2 Bft
WNW 0.00 mm
0.0 mm/h
0.0 227 cm
05:15 Wolkig3 8.3 °C
8.3 °C
80 %
5.0 °C
1018.9 hPa 4.7 km/h
1 Bft
13.0 km/h
3 Bft
NNW -
0.0 mm/h
0.0 226 cm
05:30 Wolkig3 8.2 °C
7.8 °C
80 %
4.9 °C
1018.9 hPa 3.2 km/h
1 Bft
7.9 km/h
2 Bft
NNW -
0.0 mm/h
0.0 227 cm
05:45 Wolkig3 8.1 °C
8.1 °C
81 %
5.0 °C
1019.0 hPa 4.7 km/h
1 Bft
9.7 km/h
2 Bft
WNW -
0.0 mm/h
0.0 226 cm
06:00 Wolkig3 8.0 °C
7.6 °C
81 %
4.9 °C
1019.0 hPa 4.7 km/h
1 Bft
11.2 km/h
2 Bft
NNW 0.00 mm
0.0 mm/h
0.0 227 cm
06:15 Stark bewölkt2 7.6 °C
6.6 °C
83 %
4.8 °C
1019.0 hPa 3.2 km/h
1 Bft
11.2 km/h
2 Bft
NW -
0.0 mm/h
0.0 227 cm
06:30 Leichter Regen1 7.0 °C
6.5 °C
87 %
4.9 °C
1019.1 hPa 4.7 km/h
1 Bft
11.2 km/h
2 Bft
W -
3.3 mm/h
0.0 226 cm
06:45 Leichter Regen1 7.1 °C
7.1 °C
87 %
5.0 °C
1019.1 hPa 3.2 km/h
1 Bft
7.9 km/h
2 Bft
NW -
1.3 mm/h
0.0 226 cm
07:00 Tröpfeln4 7.0 °C
7.0 °C
88 %
5.1 °C
1019.1 hPa 3.2 km/h
1 Bft
4.7 km/h
1 Bft
NW 0.25 mm
0.0 mm/h
0.0 226 cm
07:15 Tröpfeln4 7.0 °C
7.0 °C
89 %
5.2 °C
1019.2 hPa 1.4 km/h
1 Bft
4.7 km/h
1 Bft
NNW -
0.0 mm/h
0.0 226 cm
07:30 Leichter Regen1 7.0 °C
7.0 °C
89 %
5.2 °C
1019.3 hPa 1.4 km/h
1 Bft
4.7 km/h
1 Bft
NW -
3.6 mm/h
0.0 227 cm
07:45 Leichter Regen1 7.2 °C
7.2 °C
90 %
5.6 °C
1019.4 hPa 1.4 km/h
1 Bft
4.7 km/h
1 Bft
WNW -
2.3 mm/h
0.0 226 cm
08:00 Leichter Regen1 7.2 °C
7.2 °C
90 %
5.6 °C
1019.6 hPa 1.4 km/h
1 Bft
4.7 km/h
1 Bft
WSW 2.16 mm
3.6 mm/h
0.0 217 cm
08:15 Leichter Regen1 7.0 °C
7.0 °C
90 %
5.4 °C
1019.6 hPa 3.2 km/h
1 Bft
3.2 km/h
1 Bft
NW -
2.5 mm/h
0.0 226 cm
08:30 Leichter Regen1 6.9 °C
6.9 °C
91 %
5.5 °C
1019.8 hPa 3.2 km/h
1 Bft
7.9 km/h
2 Bft
W -
1.5 mm/h
0.0 226 cm
08:45 Leichter Regen1 6.9 °C
6.9 °C
92 %
5.6 °C
1019.8 hPa 3.2 km/h
1 Bft
7.9 km/h
2 Bft
W -
4.6 mm/h
0.0 226 cm
09:00 Leichter Regen1 6.7 °C
6.7 °C
92 %
5.4 °C
1019.8 hPa 3.2 km/h
1 Bft
6.5 km/h
2 Bft
WSW 1.87 mm
3.3 mm/h
0.0 226 cm
09:15 Leichter Regen1 6.7 °C
6.7 °C
92 %
5.4 °C
1019.8 hPa 3.2 km/h
1 Bft
6.5 km/h
2 Bft
NW -
3.3 mm/h
0.0 226 cm
09:30 Leichter Regen1 6.9 °C
6.9 °C
92 %
5.6 °C
1019.8 hPa 3.2 km/h
1 Bft
6.5 km/h
2 Bft
NW -
2.0 mm/h
0.0 226 cm
09:45 Tröpfeln4 7.2 °C
6.7 °C
93 %
6.1 °C
1019.6 hPa 3.2 km/h
1 Bft
6.5 km/h
2 Bft
SSW -
1.3 mm/h
0.0 227 cm
10:00 Leichter Regen1 7.0 °C
7.0 °C
93 %
5.9 °C
1019.7 hPa 3.2 km/h
1 Bft
6.5 km/h
2 Bft
SW 1.20 mm
0.0 mm/h
0.0 226 cm
10:15 Leichter Regen1 7.1 °C
7.1 °C
93 %
6.0 °C
1019.8 hPa 3.2 km/h
1 Bft
7.9 km/h
2 Bft
WNW -
1.0 mm/h
0.0 226 cm
10:30 Bedeckt2 6.9 °C
6.4 °C
93 %
5.8 °C
1019.8 hPa 4.7 km/h
1 Bft
7.9 km/h
2 Bft
W -
1.0 mm/h
0.0 226 cm
10:45 Bedeckt2 7.1 °C
7.1 °C
92 %
5.8 °C
1019.8 hPa 3.2 km/h
1 Bft
6.5 km/h
2 Bft
W -
0.0 mm/h
0.0 226 cm
11:00 Bedeckt2 7.0 °C
7.0 °C
92 %
5.7 °C
1019.8 hPa 3.2 km/h
1 Bft
7.9 km/h
2 Bft
WNW 0.00 mm
0.0 mm/h
0.0 223 cm
11:15 Bedeckt2 7.2 °C
7.2 °C
92 %
5.9 °C
1019.9 hPa 3.2 km/h
1 Bft
4.7 km/h
1 Bft
NNW -
0.0 mm/h
0.9 226 cm
11:30 Bedeckt2 7.6 °C
7.6 °C
91 %
6.2 °C
1019.9 hPa 1.4 km/h
1 Bft
4.7 km/h
1 Bft
NNW -
0.0 mm/h
1.1 215 cm
11:45 Stark bewölkt2 8.0 °C
8.0 °C
92 %
6.6 °C
1020.0 hPa 1.4 km/h
1 Bft
6.5 km/h
2 Bft
WNW -
0.0 mm/h
1.1 226 cm
12:00 Bedeckt2 8.1 °C
8.1 °C
91 %
6.6 °C
1020.0 hPa 3.2 km/h
1 Bft
6.5 km/h
2 Bft
N 0.00 mm
0.0 mm/h
1.0 226 cm
12:15 Bedeckt2 8.4 °C
8.4 °C
89 %
6.5 °C
1019.9 hPa 1.4 km/h
1 Bft
4.7 km/h
1 Bft
N -
0.0 mm/h
0.9 226 cm
12:30 Stark bewölkt2 8.9 °C
8.9 °C
89 %
7.0 °C
1019.9 hPa 0.0 km/h
0 Bft
3.2 km/h
1 Bft
WSW -
0.0 mm/h
1.8 226 cm
12:45 Bedeckt2 9.9 °C
9.9 °C
87 %
7.7 °C
1019.8 hPa 3.2 km/h
1 Bft
4.7 km/h
1 Bft
SSO -
0.0 mm/h
3.7 222 cm
13:00 Wolkig1 9.5 °C
8.8 °C
85 %
6.9 °C
1019.6 hPa 3.2 km/h
1 Bft
9.7 km/h
2 Bft
SSW 0.00 mm
0.0 mm/h
4.1 226 cm
13:15 Stark bewölkt2 10.1 °C
10.1 °C
84 %
7.3 °C
1019.5 hPa 3.2 km/h
1 Bft
9.7 km/h
2 Bft
SO -
0.0 mm/h
2.4 226 cm
13:30 Wolkig1 11.0 °C
11.0 °C
81 %
7.8 °C
1019.5 hPa 3.2 km/h
1 Bft
9.7 km/h
2 Bft
SSW -
0.0 mm/h
3.9 226 cm
13:45 Wolkig1 11.2 °C
11.2 °C
78 %
7.4 °C
1019.3 hPa 3.2 km/h
1 Bft
13.0 km/h
3 Bft
WSW -
0.0 mm/h
3.9 226 cm
14:00 Wolkig2 11.6 °C
11.6 °C
75 %
7.2 °C
1019.3 hPa 3.2 km/h
1 Bft
9.7 km/h
2 Bft
SSW 0.00 mm
0.0 mm/h
4.1 226 cm
14:15 Wolkig2 11.7 °C
11.7 °C
75 %
7.3 °C
1019.1 hPa 4.7 km/h
1 Bft
11.2 km/h
2 Bft
WNW -
0.0 mm/h
4.0 226 cm
14:30 Leicht bewölkt2 13.8 °C
13.8 °C
69 %
8.1 °C
1019.1 hPa 3.2 km/h
1 Bft
16.2 km/h
3 Bft
O -
0.0 mm/h
4.3 226 cm
14:45 Wolkig1 13.1 °C
13.1 °C
67 %
7.0 °C
1019.0 hPa 6.5 km/h
2 Bft
11.2 km/h
2 Bft
SSO -
0.0 mm/h
4.1 226 cm
15:00 Wolkig1 12.9 °C
12.9 °C
66 %
6.6 °C
1018.9 hPa 4.7 km/h
1 Bft
13.0 km/h
3 Bft
SW 0.00 mm
0.0 mm/h
4.4 226 cm
15:15 Stark bewölkt3 13.4 °C
13.4 °C
68 %
7.5 °C
1019.0 hPa 1.4 km/h
1 Bft
9.7 km/h
2 Bft
NW -
0.0 mm/h
2.5 227 cm
15:30 Wolkig3 12.4 °C
12.4 °C
67 %
6.4 °C
1019.0 hPa 3.2 km/h
1 Bft
9.7 km/h
2 Bft
NW -
0.0 mm/h
1.2 227 cm
15:45 Wolkig3 12.3 °C
12.3 °C
67 %
6.3 °C
1018.8 hPa 3.2 km/h
1 Bft
6.5 km/h
2 Bft
WNW -
0.0 mm/h
0.9 226 cm
16:00 Wolkig3 12.3 °C
12.3 °C
68 %
6.4 °C
1018.8 hPa 1.4 km/h
1 Bft
6.5 km/h
2 Bft
NW 0.00 mm
0.0 mm/h
0.5 226 cm
16:15 Wolkig3 12.5 °C
12.5 °C
67 %
6.4 °C
1018.7 hPa 1.4 km/h
1 Bft
4.7 km/h
1 Bft
SO -
0.0 mm/h
0.0 226 cm
16:30 Wolkig3 12.4 °C
12.4 °C
68 %
6.5 °C
1018.6 hPa 1.4 km/h
1 Bft
4.7 km/h
1 Bft
NNW -
0.0 mm/h
0.0 226 cm
16:45 Wolkig3 12.4 °C
12.4 °C
67 %
6.4 °C
1018.4 hPa 1.4 km/h
1 Bft
4.7 km/h
1 Bft
NNW -
0.0 mm/h
0.9 226 cm
17:00 Wolkig3 12.7 °C
12.7 °C
67 %
6.6 °C
1018.4 hPa 3.2 km/h
1 Bft
6.5 km/h
2 Bft
NNW 0.00 mm
0.0 mm/h
1.0 227 cm
17:15 Wolkig3 12.8 °C
12.8 °C
66 %
6.5 °C
1018.3 hPa 3.2 km/h
1 Bft
6.5 km/h
2 Bft
NNO -
0.0 mm/h
1.0 218 cm
17:30 Wolkig3 12.9 °C
12.9 °C
69 %
7.2 °C
1018.3 hPa 4.7 km/h
1 Bft
9.7 km/h
2 Bft
WNW -
0.0 mm/h
0.9 227 cm
17:45 Wolkig3 12.5 °C
12.5 °C
68 %
6.6 °C
1018.4 hPa 4.7 km/h
1 Bft
7.9 km/h
2 Bft
NW -
0.0 mm/h
0.9 226 cm
18:00 Wolkig3 12.6 °C
12.6 °C
70 %
7.1 °C
1018.4 hPa 4.7 km/h
1 Bft
9.7 km/h
2 Bft
NNW 0.00 mm
0.0 mm/h
0.8 226 cm
18:15 Wolkig3 12.6 °C
12.6 °C
71 %
7.4 °C
1018.4 hPa 4.7 km/h
1 Bft
7.9 km/h
2 Bft
NNO -
0.0 mm/h
0.8 227 cm
18:30 Wolkig3 12.5 °C
12.5 °C
71 %
7.3 °C
1018.4 hPa 3.2 km/h
1 Bft
11.2 km/h
2 Bft
N -
0.0 mm/h
0.5 226 cm
18:45 Leicht bewölkt2 12.5 °C
12.5 °C
70 %
7.1 °C
1018.4 hPa 3.2 km/h
1 Bft
7.9 km/h
2 Bft
NW -
0.0 mm/h
0.0 220 cm
19:00 Wolkig3 12.5 °C
12.5 °C
71 %
7.3 °C
1018.3 hPa 3.2 km/h
1 Bft
7.9 km/h
2 Bft
NW 0.00 mm
0.0 mm/h
0.0 226 cm
19:15 Stark bewölkt2 12.3 °C
12.3 °C
72 %
7.3 °C
1018.3 hPa 3.2 km/h
1 Bft
6.5 km/h
2 Bft
WNW -
0.0 mm/h
0.0 226 cm
19:30 Stark bewölkt2 12.2 °C
12.2 °C
73 %
7.4 °C
1018.3 hPa 3.2 km/h
1 Bft
6.5 km/h
2 Bft
NNW -
0.0 mm/h
0.0 227 cm
19:45 Wolkig3 12.1 °C
12.1 °C
73 %
7.3 °C
1018.3 hPa 1.4 km/h
1 Bft
6.5 km/h
2 Bft
WNW -
0.0 mm/h
0.0 226 cm
20:00 Wolkig3 12.0 °C
12.0 °C
73 %
7.2 °C
1018.3 hPa 3.2 km/h
1 Bft
6.5 km/h
2 Bft
NW 0.00 mm
0.0 mm/h
0.0 226 cm
20:15 Wolkig3 11.8 °C
11.8 °C
74 %
7.2 °C
1018.2 hPa 3.2 km/h
1 Bft
6.5 km/h
2 Bft
NW -
0.0 mm/h
0.0 223 cm
20:30 Wolkig3 11.7 °C
11.7 °C
75 %
7.3 °C
1018.2 hPa 3.2 km/h
1 Bft
6.5 km/h
2 Bft
NW -
0.0 mm/h
0.0 219 cm
20:45 Wolkig3 11.5 °C
11.5 °C
75 %
7.1 °C
1018.3 hPa 1.4 km/h
1 Bft
6.5 km/h
2 Bft
NW -
0.0 mm/h
0.0 226 cm
21:00 Leicht bewölkt3 11.3 °C
11.3 °C
77 %
7.3 °C
1018.4 hPa 1.4 km/h
1 Bft
4.7 km/h
1 Bft
NW 0.00 mm
0.0 mm/h
0.0 226 cm
21:15 Leicht bewölkt3 11.1 °C
11.1 °C
78 %
7.3 °C
1018.4 hPa 0.0 km/h
0 Bft
4.7 km/h
1 Bft
NW -
0.0 mm/h
0.0 226 cm
21:30 Leicht bewölkt3 11.0 °C
11.0 °C
78 %
7.2 °C
1018.5 hPa 1.4 km/h
1 Bft
3.2 km/h
1 Bft
NW -
0.0 mm/h
0.0 226 cm
21:45 Leicht bewölkt3 10.8 °C
10.8 °C
79 %
7.2 °C
1018.5 hPa 1.4 km/h
1 Bft
3.2 km/h
1 Bft
NW -
0.0 mm/h
0.0 227 cm
22:00 Leicht bewölkt3 10.6 °C
10.6 °C
80 %
7.2 °C
1018.5 hPa 1.4 km/h
1 Bft
3.2 km/h
1 Bft
NW 0.00 mm
0.0 mm/h
0.0 226 cm
22:15 Wolkenlos3 10.4 °C
10.4 °C
81 %
7.1 °C
1018.4 hPa 1.4 km/h
1 Bft
3.2 km/h
1 Bft
NW -
0.0 mm/h
0.0 226 cm
22:30 Wolkenlos3 10.1 °C
10.1 °C
82 %
7.0 °C
1018.4 hPa 1.4 km/h
1 Bft
3.2 km/h
1 Bft
NW -
0.0 mm/h
0.0 226 cm
22:45 Leicht bewölkt3 10.0 °C
10.0 °C
83 %
7.1 °C
1018.5 hPa 0.0 km/h
0 Bft
3.2 km/h
1 Bft
NW -
0.0 mm/h
0.0 226 cm
23:00 Leicht bewölkt3 9.9 °C
9.9 °C
83 %
7.0 °C
1018.4 hPa 0.0 km/h
0 Bft
0.0 km/h
0 Bft
NW 0.00 mm
0.0 mm/h
0.0 226 cm
23:15 Leicht bewölkt3 9.5 °C
9.5 °C
84 %
6.8 °C
1018.3 hPa 0.0 km/h
0 Bft
1.4 km/h
1 Bft
NW -
0.0 mm/h
0.0 226 cm
23:30 Leicht bewölkt3 9.2 °C
9.2 °C
85 %
6.6 °C
1018.4 hPa 0.0 km/h
0 Bft
1.4 km/h
1 Bft
NW -
0.0 mm/h
0.0 226 cm
23:45 Wolkenlos3 9.1 °C
9.1 °C
85 %
6.5 °C
1018.3 hPa 0.0 km/h
0 Bft
0.0 km/h
0 Bft
NW -
0.0 mm/h
0.0 226 cm
00:00 Wolkenlos3 9.2 °C
9.2 °C
86 %
6.8 °C
1018.3 hPa 0.0 km/h
0 Bft
0.0 km/h
0 Bft
NW 0.00 mm
0.0 mm/h
0.0 221 cm
Datenbasis Wetterzustand: ¹ Wetterstation Köln-Nippes (Stellwerk), ² powered by , ³ powered by OpenWeatherMap, CC BY-SA 4.0; Warnlage: DWD, Pegelonline, LANUV; Pegel Köln: Pegelonline
 
Extrem- und Durchschnittswerte
  Temperatur Luftfeuchte Luftdruck Wind Windböen Wind-
richtung
Regen UV-Index Pegel Köln KKT
Min

Max

Ø
6.7 °C
08:56 Uhr
14.3 °C
14:31 Uhr
10.0 °C
62.0 %
14:51 Uhr
93.0 %
09:23 Uhr
79.7 %
1018.2 hPa
17:24 Uhr
1020.1 hPa
11:54 Uhr
1019.0 hPa
 
 
6.5 km/h
05:50 Uhr
2.8 km/h
 
 
16.2 km/h
14:15 Uhr
 
 
 
NW
 
 
 
 
5.48 mm
 
 
 
 
4.4
14:42 Uhr
 
215 cm
11:30 Uhr
228 cm
00:15 Uhr
 

NT
  gefühlt Taupunkt   Wind Windböen   Regenrate Ozon Sonne Mond
Min

Max

Ø
5.4 °C
06:22 Uhr
14.3 °C
14:31 Uhr
 
4.7 °C
06:09 Uhr
8.3 °C
14:29 Uhr
6.4 °C
   
 
2 Bft
05:50 Uhr
2.8 km/h
 
 
3 Bft
14:15 Uhr
 
   
 
4.6 mm/h
08:36 Uhr
 
 
Hürth
80 μg/m³
17:00 Uhr
 
▲ 06:28 Uhr
▼ 20:34 Uhr
▼ 03:12 Uhr
▲ 10:43 Uhr
KKT = Klimatologischer Kenntag: ET = Eistag, FT = Frosttag, KT = Kalter Tag, ST = Sommertag, HT = Hitzetag, TN = Tropennacht, NT = Niederschlagstag, SH = Schneehöhe (Max Tag); Datenbasis Ozon: LANUV, Land NRW, dl-de/by-2-0
 
Detaillierte Warnlage
















19.04.21

19.04.21

19.04.21

19.04.21

19.04.21

19.04.21

19.04.21
Datenbasis: DWD, Pegelonline, LANUV
Es ist ein Fehler aufgetreten.